Location: Brantley
(31.5822°N, 86.2569°W)
Time: 19:14:23
(UTC+00:00)

Courier 1B Rocket - Pass Details

Date: 23 February 2026
Orbit: 920 x 1201 km, 28.2° (Epoch: 10 March)

Event Time Altitude Azimuth Distance (km) Brightness Sun altitude
Rises 19:52:40 0° 206° (SSW) 3,748 8.9 40.6°
Reaches altitude 10° 19:56:44 10° 184° (S) 2,738 8.2 40.0°
Maximum altitude 20:00:12 15° 152° (SSE) 2,363 7.4 39.5°
Drops below altitude 10° 20:03:35 10° 120° (ESE) 2,658 7.3 39.1°
Sets 20:07:25 0° 97° (E) 3,572 7.7 38.5°
